EW5739 Weather Reports


Display with metric or nautical units.
time (UTC)temp
F
wind
direction
speed
MPH
gust
MPH
rain 1hr
in
rain 24hr
in
rain mn
in
humidity
%
barometer
mb
20190720004612 69 41 0.0 0.0 0.00 0.00 0.00 92 1005.8
20190720004112 69 41 0.0 0.0 0.00 0.00 0.00 92 1005.8
20190720003611 69 41 0.0 0.0 0.00 0.00 0.00 91 1005.8
20190720003112 70 41 0.0 0.0 0.00 0.00 0.00 90 1005.8
20190720002612 70 41 0.0 0.0 0.00 0.00 0.00 90 1005.8
20190720002109 70 41 0.0 0.0 0.00 0.00 0.00 89 1006.8
20190720001609 70 41 0.0 0.0 0.00 0.00 0.00 89 1005.9
20190720001109 71 41 0.0 0.0 0.00 0.00 0.00 89 1005.9
20190720000608 71 41 0.0 0.0 0.00 0.00 0.00 88 1005.9
20190720000108 71 41 0.0 0.0 0.00 0.00 0.00 88 1005.9
20190719235608 71 41 0.0 0.0 0.00 0.00 0.00 88 1005.9
20190719235108 71 41 0.0 0.0 0.00 0.00 0.00 87 1006.0
20190719234608 71 41 0.0 0.0 0.00 0.00 0.00 87 1006.0
20190719234109 71 41 0.0 0.0 0.00 0.00 0.00 86 1005.9
20190719233607 71 41 0.0 0.0 0.00 0.00 0.00 86 1006.1
20190719233108 71 39 0.0 0.0 0.00 0.00 0.00 86 1006.0
20190719232608 72 39 0.0 0.0 0.00 0.00 0.00 86 1006.0
20190719232109 72 39 0.0 0.0 0.00 0.00 0.00 86 1006.0
20190719231608 72 351 0.0 0.0 0.00 0.00 0.00 85 1006.1
20190719231108 72 352 0.0 0.0 0.00 0.00 0.00 84 1006.1
20190719230608 73 352 0.0 1.0 0.00 0.00 0.00 84 1006.1
20190719230108 73 351 0.0 1.0 0.00 0.00 0.00 84 1006.1
20190719225608 73 320 0.0 1.0 0.00 0.00 0.00 83 1006.0
20190719225108 73 32 0.0 1.0 0.00 0.00 0.00 83 1006.0
20190719224608 73 32 0.0 1.0 0.00 0.00 0.00 83 1006.1
20190719224107 73 32 0.0 1.0 0.00 0.00 0.00 82 1006.2
20190719223608 73 84 0.0 1.0 0.00 0.00 0.00 81 1006.1
20190719223108 74 56 0.0 1.0 0.00 0.00 0.00 81 1006.1
20190719222607 74 91 0.0 3.0 0.00 0.00 0.00 81 1006.2
20190719222108 74 127 0.0 3.0 0.00 0.00 0.00 80 1006.2
20190719221608 74 37 0.0 0.0 0.00 0.00 0.00 79 1006.1
20190719221108 74 35 0.0 0.0 0.00 0.00 0.00 80 1006.2
20190719220607 74 18 0.0 2.0 0.00 0.00 0.00 79 1006.3
20190719220108 74 79 0.0 4.0 0.00 0.00 0.00 79 1006.2
20190719215608 74 210 0.0 4.0 0.00 0.00 0.00 78 1006.4
20190719215108 74 203 0.0 4.0 0.00 0.00 0.00 77 1006.3
20190719214608 74 77 0.0 4.0 0.00 0.00 0.00 76 1006.4
20190719214109 75 353 0.0 3.0 0.00 0.00 0.00 76 1006.5
20190719213607 75 274 1.0 5.0 0.00 0.00 0.00 74 1006.5
20190719213107 75 31 0.0 5.0 0.00 0.00 0.00 74 1007.5
20190719212606 75 333 0.0 5.0 0.00 0.00 0.00 73 1006.6
20190719212106 76 120 0.0 0.0 0.00 0.00 0.00 73 1006.5
20190719211605 76 103 0.0 4.0 0.00 0.00 0.00 73 1006.6
20190719211105 76 60 0.0 4.0 0.00 0.00 0.00 72 1006.7
20190719210606 76 131 0.0 0.0 0.00 0.00 0.00 71 1006.7
20190719210106 76 74 0.0 2.0 0.00 0.00 0.00 71 1006.8
20190719205605 77 350 0.0 5.0 0.00 0.00 0.00 70 1006.8
20190719205105 78 269 0.0 5.0 0.00 0.00 0.00 70 1007.0
20190719204606 78 114 0.0 3.0 0.00 0.00 0.00 69 1007.0
20190719204106 78 109 0.0 2.0 0.00 0.00 0.00 67 1007.0
20190719203606 78 122 0.0 2.0 0.00 0.00 0.00 67 1007.3
20190719203106 79 352 0.0 2.0 0.00 0.00 0.00 66 1007.2
20190719202605 79 82 0.0 2.0 0.00 0.00 0.00 66 1007.4
20190719202106 79 113 0.0 2.0 0.00 0.00 0.00 64 1007.3
20190719201605 79 124 0.0 3.0 0.00 0.00 0.00 64 1007.4
20190719201106 79 301 0.0 3.0 0.00 0.00 0.00 64 1007.5
20190719200605 79 51 0.0 2.0 0.00 0.00 0.00 62 1007.5
20190719200105 79 283 0.0 3.0 0.00 0.00 0.00 62 1007.6
20190719195606 79 120 0.0 3.0 0.00 0.00 0.00 65 1007.6
20190719195106 79 96 0.0 3.0 0.00 0.00 0.00 62 1007.7
20190719194606 79 136 1.0 7.0 0.00 0.00 0.00 62 1008.7
20190719194105 79 296 1.0 7.0 0.00 0.00 0.00 64 1007.7
20190719193605 79 349 0.0 2.0 0.00 0.00 0.00 62 1007.7
20190719193106 79 99 0.0 2.0 0.00 0.00 0.00 65 1007.7
20190719192606 78 324 0.0 2.0 0.00 0.00 0.00 65 1007.6
20190719192105 78 50 0.0 4.0 0.00 0.00 0.00 64 1007.6
20190719191605 78 100 1.0 7.0 0.00 0.00 0.00 63 1007.6
20190719191107 78 2 0.0 7.0 0.00 0.00 0.00 63 1007.5
20190719190606 78 262 0.0 5.0 0.00 0.00 0.00 60 1007.6
20190719190105 78 260 1.0 5.0 0.00 0.00 0.00 63 1007.5
20190719185605 78 115 0.0 3.0 0.00 0.00 0.00 64 1007.5
20190719185106 78 240 0.0 3.0 0.00 0.00 0.00 61 1007.5
20190719184605 78 12 0.0 6.0 0.00 0.00 0.00 62 1007.6
20190719184105 78 340 0.0 6.0 0.00 0.00 0.00 62 1007.7
20190719183605 78 274 1.0 3.0 0.00 0.00 0.00 63 1007.7
20190719183106 78 130 1.0 3.0 0.00 0.00 0.00 66 1007.9
20190719182605 79 107 0.0 3.0 0.00 0.00 0.00 63 1009.0
20190719182104 78 328 0.0 3.0 0.00 0.00 0.00 64 1009.0
20190719181605 78 33 0.0 2.0 0.00 0.00 0.00 66 1009.1
20190719181105 78 321 0.0 2.0 0.00 0.00 0.00 64 1009.0
20190719180604 78 110 0.0 5.0 0.00 0.00 0.00 64 1009.1
20190719180105 78 30 1.0 5.0 0.00 0.00 0.00 62 1009.1
20190719175609 77 355 1.0 5.0 0.00 0.00 0.00 63 1009.3
20190719175104 77 72 1.0 5.0 0.00 0.00 0.00 62 1009.5
20190719174605 77 153 1.0 3.0 0.00 0.00 0.00 59 1009.6
20190719174104 77 139 0.0 2.0 0.00 0.00 0.00 64 1009.8
20190719173604 76 107 1.0 4.0 0.00 0.00 0.00 62 1009.8
20190719173105 76 89 1.0 4.0 0.00 0.00 0.00 60 1009.8
20190719172605 77 92 1.0 4.0 0.00 0.00 0.00 59 1009.9
20190719172105 77 328 1.0 6.0 0.00 0.00 0.00 58 1010.0
20190719171605 77 107 0.0 6.0 0.00 0.00 0.00 59 1010.0
20190719171105 77 55 0.0 5.0 0.00 0.00 0.00 58 1009.9
20190719170605 77 25 1.0 5.0 0.00 0.00 0.00 60 1009.8
20190719170104 77 44 1.0 3.0 0.00 0.00 0.00 58 1009.9
20190719165605 77 338 1.0 6.0 0.00 0.00 0.00 57 1009.9
20190719165105 76 44 1.0 6.0 0.00 0.00 0.00 58 1010.0
20190719164604 77 98 1.0 6.0 0.00 0.00 0.00 58 1010.1
20190719164105 77 102 1.0 6.0 0.00 0.00 0.00 58 1010.1
20190719163605 77 88 1.0 5.0 0.00 0.00 0.00 57 1010.1
20190719163105 77 127 0.0 5.0 0.00 0.00 0.00 57 1010.2
20190719162604 77 289 0.0 5.0 0.00 0.00 0.00 59 1010.3
20190719162104 77 353 0.0 2.0 0.00 0.00 0.00 56 1010.4
20190719161605 78 330 0.0 1.0 0.00 0.00 0.00 55 1010.5
20190719161105 78 116 0.0 4.0 0.00 0.00 0.00 56 1010.6
20190719160605 77 301 0.0 4.0 0.00 0.00 0.00 58 1010.6
20190719160104 78 228 0.0 2.0 0.00 0.00 0.00 54 1010.7
20190719155604 77 358 0.0 3.0 0.00 0.00 0.00 58 1010.7
20190719155105 76 101 0.0 3.0 0.00 0.00 0.00 58 1010.6
20190719154605 76 354 0.0 2.0 0.00 0.00 0.00 56 1010.7
20190719154104 76 110 0.0 3.0 0.00 0.00 0.00 59 1010.6
20190719153604 76 331 0.0 3.0 0.00 0.00 0.00 54 1010.6
20190719153105 75 112 1.0 4.0 0.00 0.00 0.00 59 1010.6
20190719152605 76 101 1.0 4.0 0.00 0.00 0.00 57 1010.6
20190719152104 76 321 0.0 4.0 0.00 0.00 0.00 60 1010.7
20190719151604 76 53 1.0 3.0 0.00 0.00 0.00 60 1010.7
20190719151105 75 349 1.0 3.0 0.00 0.00 0.00 60 1010.7
20190719150605 75 253 1.0 4.0 0.00 0.00 0.00 62 1010.7
20190719150106 75 88 1.0 4.0 0.00 0.00 0.00 63 1010.7
20190719145605 75 351 1.0 3.0 0.00 0.00 0.00 62 1010.0
20190719145105 75 11 1.0 3.0 0.00 0.00 0.00 57 1011.0
20190719144604 76 103 1.0 3.0 0.00 0.00 0.00 60 1011.0
20190719144104 75 347 0.0 4.0 0.00 0.00 0.00 63 1010.9
20190719143605 76 94 0.0 4.0 0.00 0.00 0.00 62 1010.9
20190719143105 76 149 0.0 2.0 0.00 0.00 0.00 64 1010.1
20190719142604 76 299 0.0 0.0 0.00 0.00 0.00 61 1011.0
20190719142104 75 94 0.0 0.0 0.00 0.00 0.00 60 1011.1
20190719141606 75 96 0.0 0.0 0.00 0.00 0.00 60 1011.1
20190719141104 75 326 0.0 3.0 0.00 0.00 0.00 60 1011.2
20190719140605 74 101 0.0 3.0 0.00 0.00 0.00 63 1011.2
20190719140105 75 309 0.0 0.0 0.00 0.00 0.00 58 1011.3
20190719135604 74 219 0.0 0.0 0.00 0.00 0.00 61 1011.3
20190719135105 74 225 0.0 1.0 0.00 0.00 0.00 65 1011.3
20190719134604 74 205 0.0 4.0 0.00 0.00 0.00 63 1011.3
20190719134105 74 96 0.0 4.0 0.00 0.00 0.00 60 1011.4
20190719133605 74 92 0.0 2.0 0.00 0.00 0.00 65 1010.5
20190719133105 74 92 0.0 2.0 0.00 0.00 0.00 63 1011.5
20190719132604 74 334 0.0 0.0 0.00 0.00 0.00 65 1011.5
20190719132104 73 105 0.0 0.0 0.00 0.00 0.00 67 1011.5
20190719131605 73 118 0.0 0.0 0.00 0.00 0.00 67 1011.4
20190719131105 73 94 0.0 0.0 0.00 0.00 0.00 67 1011.5
20190719130606 72 98 0.0 0.0 0.00 0.00 0.00 66 1011.6
20190719130105 72 6 0.0 0.0 0.00 0.00 0.00 68 1011.7
20190719125605 71 1 0.0 0.0 0.00 0.00 0.00 71 1011.7
20190719125104 71 3 0.0 0.0 0.00 0.00 0.00 69 1011.8
20190719124605 71 359 0.0 0.0 0.00 0.00 0.00 69 1011.9
20190719124105 71 20 0.0 0.0 0.00 0.00 0.00 68 1012.0
20190719123605 71 89 0.0 0.0 0.00 0.00 0.00 73 1012.0
20190719123105 70 84 0.0 0.0 0.00 0.00 0.00 70 1012.1
20190719122604 69 86 0.0 0.0 0.00 0.00 0.00 73 1012.2
20190719122104 70 113 0.0 0.0 0.00 0.00 0.00 73 1012.2
20190719121605 69 113 0.0 0.0 0.00 0.00 0.00 73 1012.3
20190719121105 69 113 0.0 0.0 0.00 0.00 0.00 74 1012.3
20190719120542 68 123 0.0 0.0 0.00 0.00 0.00 78 1012.2
20190719120040 67 124 0.0 0.0 0.00 0.00 0.00 79 1011.2
20190719115537 66 25 0.0 0.0 0.00 0.00 0.00 84 1012.2
20190719115033 66 18 0.0 0.0 0.00 0.00 0.00 84 1012.3
20190719114533 65 39 0.0 0.0 0.00 0.00 0.00 86 1011.4
20190719114033 64 39 0.0 0.0 0.00 0.00 0.00 87 1011.4
20190719113533 63 52 0.0 0.0 0.00 0.00 0.00 88 1011.4
20190719113031 63 28 0.0 0.0 0.00 0.00 0.00 89 1011.5
20190719112530 62 24 0.0 0.0 0.00 0.00 0.00 91 1011.6
20190719112030 61 24 0.0 0.0 0.00 0.00 0.00 92 1011.7
20190719111529 61 51 0.0 0.0 0.00 0.00 0.00 93 1011.7
20190719111026 61 355 0.0 0.0 0.00 0.00 0.00 93 1011.7
20190719110526 62 355 0.0 0.0 0.00 0.00 0.00 92 1011.8
20190719110027 62 355 0.0 0.0 0.00 0.00 0.00 91 1011.8
20190719105525 61 355 0.0 0.0 0.00 0.00 0.00 95 1011.9
20190719105024 60 355 0.0 0.0 0.00 0.00 0.00 97 1011.9
20190719104524 59 355 0.0 0.0 0.00 0.00 0.00 97 1012.0
20190719104025 58 355 0.0 0.0 0.00 0.00 0.00 98 1012.1
20190719103525 58 355 0.0 0.0 0.00 0.00 0.00 98 1012.0
20190719103024 57 355 0.0 0.0 0.00 0.00 0.00 98 1012.0
20190719102520 57 355 0.0 0.0 0.00 0.00 0.00 99 1012.0
20190719102020 56 355 0.0 0.0 0.00 0.00 0.00 99 1012.0
20190719101520 56 355 0.0 0.0 0.00 0.00 0.00 98 1012.0
20190719101020 56 355 0.0 0.0 0.00 0.00 0.00 98 1011.8
20190719100521 56 355 0.0 0.0 0.00 0.00 0.00 98 1011.8
20190719100021 56 355 0.0 0.0 0.00 0.00 0.00 98 1011.6
20190719095521 56 355 0.0 0.0 0.00 0.00 0.00 98 1011.6
20190719095021 56 355 0.0 0.0 0.00 0.00 0.00 98 1011.6
20190719094520 56 355 0.0 0.0 0.00 0.00 0.00 98 1011.5
20190719094021 56 355 0.0 0.0 0.00 0.00 0.00 98 1011.7
20190719093521 56 355 0.0 0.0 0.00 0.00 0.00 98 1011.6
20190719093021 56 355 0.0 0.0 0.00 0.00 0.00 98 1011.4
20190719092520 56 355 0.0 0.0 0.00 0.00 0.00 98 1011.6
20190719092020 56 355 0.0 0.0 0.00 0.00 0.00 98 1011.6
20190719091520 56 355 0.0 0.0 0.00 0.00 0.00 98 1011.6
20190719091021 56 355 0.0 0.0 0.00 0.00 0.00 98 1011.7
20190719090521 56 355 0.0 0.0 0.00 0.00 0.00 98 1012.0
20190719090020 56 355 0.0 0.0 0.00 0.00 0.00 98 1012.1
20190719085520 56 355 0.0 0.0 0.00 0.00 0.00 98 1012.0
20190719085020 56 355 0.0 0.0 0.00 0.00 0.00 98 1011.8
20190719084517 56 355 0.0 0.0 0.00 0.00 0.00 98 1011.6
20190719084017 56 355 0.0 0.0 0.00 0.00 0.00 98 1011.6
20190719083516 56 355 0.0 0.0 0.00 0.00 0.00 98 1011.7
20190719083012 56 355 0.0 0.0 0.00 0.00 0.00 98 1011.7
20190719082512 56 355 0.0 0.0 0.00 0.00 0.00 98 1011.8
20190719082013 56 355 0.0 0.0 0.00 0.00 0.00 98 1011.6
20190719081512 56 355 0.0 0.0 0.00 0.00 0.00 98 1011.7
20190719081012 56 355 0.0 0.0 0.00 0.00 0.00 98 1011.7
20190719080512 56 355 0.0 0.0 0.00 0.00 0.00 98 1011.7
20190719080010 56 355 0.0 0.0 0.00 0.00 0.00 98 1012.6
20190719075509 56 355 0.0 0.0 0.00 0.00 0.00 98 1012.6
20190719075005 56 355 0.0 0.0 0.00 0.00 0.00 98 1012.6
20190719074507 56 355 0.0 0.0 0.00 0.00 0.00 98 1012.7
20190719074004 56 355 0.0 0.0 0.00 0.00 0.00 98 1012.8
20190719073508 56 355 0.0 0.0 0.00 0.00 0.00 98 1012.8
20190719073005 55 355 0.0 0.0 0.00 0.00 0.00 98 1013.0
20190719072507 55 355 0.0 0.0 0.00 0.00 0.00 98 1013.0
20190719072004 55 355 0.0 0.0 0.00 0.00 0.00 98 1012.9
20190719071508 55 355 0.0 0.0 0.00 0.00 0.00 98 1012.9
20190719071005 55 355 0.0 0.0 0.00 0.00 0.00 97 1013.0
20190719070507 55 355 0.0 0.0 0.00 0.00 0.00 97 1013.1
20190719070004 55 355 0.0 0.0 0.00 0.00 0.00 98 1013.1
20190719065508 55 355 0.0 0.0 0.00 0.00 0.00 98 1013.1
20190719065006 55 355 0.0 0.0 0.00 0.00 0.00 98 1013.1
20190719064458 55 355 0.0 0.0 0.00 0.00 0.00 98 1013.0
20190719063944 55 355 0.0 0.0 0.00 0.00 0.00 97 1013.0
20190719063441 55 355 0.0 0.0 0.00 0.00 0.00 97 1012.2
20190719062938 56 355 0.0 0.0 0.00 0.00 0.00 98 1012.3
20190719062441 55 355 0.0 0.0 0.00 0.00 0.00 98 1012.3
20190719062006 56 355 0.0 0.0 0.00 0.00 0.00 97 1012.2
20190719061938 55 355 0.0 0.0 0.00 0.00 0.00 97 1012.2
20190719055906 56 355 0.0 0.0 0.00 0.00 0.00 98 1012.4
20190719055407 56 355 0.0 0.0 0.00 0.00 0.00 98 1012.4
20190719054906 56 355 0.0 0.0 0.00 0.00 0.00 98 1012.4
20190719054406 56 355 0.0 0.0 0.00 0.00 0.00 98 1012.4
20190719053906 56 355 0.0 0.0 0.00 0.00 0.00 98 1012.5
20190719053406 56 355 0.0 0.0 0.00 0.00 0.00 97 1012.5
20190719052906 56 355 0.0 0.0 0.00 0.00 0.00 97 1013.4
20190719052406 56 355 0.0 0.0 0.00 0.00 0.00 97 1012.7
20190719051906 56 355 0.0 0.0 0.00 0.00 0.00 97 1012.7
20190719051406 56 355 0.0 0.0 0.00 0.00 0.00 97 1012.8
20190719050905 56 355 0.0 0.0 0.00 0.00 0.00 97 1013.6
20190719050405 56 355 0.0 0.0 0.00 0.00 0.00 97 1013.7
20190719045904 56 355 0.0 0.0 0.00 0.00 0.00 96 1013.8
20190719045404 56 355 0.0 0.0 0.00 0.00 0.00 96 1014.0
20190719044905 57 355 0.0 0.0 0.00 0.00 0.00 96 1013.9
20190719044405 57 355 0.0 0.0 0.00 0.00 0.00 96 1013.9
20190719043904 57 355 0.0 0.0 0.00 0.00 0.00 96 1013.9
20190719043404 57 355 0.0 0.0 0.00 0.00 0.00 96 1014.0
20190719042905 57 355 0.0 0.0 0.00 0.00 0.00 96 1014.1
20190719042405 57 355 0.0 0.0 0.00 0.00 0.00 96 1014.2
20190719041905 57 355 0.0 0.0 0.00 0.00 0.00 96 1014.1
20190719041405 57 355 0.0 0.0 0.00 0.00 0.00 96 1014.0
20190719040905 57 355 0.0 0.0 0.00 0.00 0.00 96 1013.9
20190719035905 57 355 0.0 0.0 0.00 0.00 0.00 95 1013.9
20190719035404 58 355 0.0 0.0 0.00 0.00 0.00 95 1014.0
20190719034904 58 355 0.0 0.0 0.00 0.00 0.00 96 1014.0
20190719034405 57 355 0.0 0.0 0.00 0.00 0.00 95 1014.1
20190719033905 58 355 0.0 0.0 0.00 0.00 0.00 94 1014.0
20190719033404 58 355 0.0 0.0 0.00 0.00 0.00 94 1014.0
20190719032904 58 355 0.0 0.0 0.00 0.00 0.00 94 1014.1
20190719032405 58 355 0.0 0.0 0.00 0.00 0.00 94 1014.1
20190719031905 58 355 0.0 0.0 0.00 0.00 0.00 95 1014.0
20190719031406 58 355 0.0 0.0 0.00 0.00 0.00 94 1014.1
20190719030905 58 355 0.0 0.0 0.00 0.00 0.00 95 1014.1
20190719030404 58 355 0.0 0.0 0.00 0.00 0.00 94 1014.1
20190719025905 58 355 0.0 0.0 0.00 0.00 0.00 94 1014.1
20190719025405 58 355 0.0 0.0 0.00 0.00 0.00 94 1014.1
20190719024904 58 355 0.0 0.0 0.00 0.00 0.00 94 1014.2
20190719024405 58 355 0.0 0.0 0.00 0.00 0.00 93 1014.1
20190719023904 58 355 0.0 0.0 0.00 0.00 0.00 93 1014.2
20190719023405 58 355 0.0 0.0 0.00 0.00 0.00 92 1014.3
20190719022905 59 355 0.0 0.0 0.00 0.00 0.00 92 1014.5
20190719022348 59 355 0.0 0.0 0.00 0.00 0.00 91 1014.5
20190719021837 59 355 0.0 0.0 0.00 0.00 0.00 90 1014.5
20190719021338 59 355 0.0 0.0 0.00 0.00 0.00 92 1014.5
20190719020837 59 355 0.0 0.0 0.00 0.00 0.00 92 1013.8
20190719020332 59 355 0.0 0.0 0.00 0.00 0.00 92 1013.7
20190719015832 59 355 0.0 0.0 0.00 0.00 0.00 91 1013.7
20190719015331 59 355 0.0 0.0 0.00 0.00 0.00 92 1013.7
20190719014830 59 355 0.0 0.0 0.00 0.00 0.00 91 1013.8
20190719014329 60 355 0.0 0.0 0.00 0.00 0.00 90 1013.8
20190719013828 60 355 0.0 0.0 0.00 0.00 0.00 91 1013.8
20190719013329 60 355 0.0 0.0 0.00 0.00 0.00 90 1013.8
20190719012826 60 355 0.0 0.0 0.00 0.00 0.00 89 1013.8
20190719012324 60 355 0.0 0.0 0.00 0.00 0.00 89 1013.9
20190719011822 60 355 0.0 0.0 0.00 0.00 0.00 88 1013.8
20190719011322 61 355 0.0 0.0 0.00 0.00 0.00 88 1013.9
20190719010822 61 355 0.0 0.0 0.00 0.00 0.00 85 1014.0
20190719010322 61 355 0.0 0.0 0.00 0.00 0.00 86 1013.9
20190719005820 62 355 0.0 0.0 0.00 0.00 0.00 85 1014.0
20190719005320 62 355 0.0 0.0 0.00 0.00 0.00 84 1014.0
20190719004820 62 355 0.0 0.0 0.00 0.00 0.00 84 1014.0